Regional Weather Roundup
Issued by NWS

Home | Current Version | Previous Version | Graphics & Text | Print | Product List | Glossary On
Versions: 1 2 3 4 5 6 7 8 9 10 11 12 13 14 15 16 17 18 19 20 21 22 23 24 25 26 27 28 29 30 31 32 33 34 35 36 37 38 39 40 41 42 43 44 45 46 47 48 49 50
000
ASUS43 KDTX 291810
RWRMI
MICHIGAN HOURLY REGIONAL WEATHER ROUNDUP
NATIONAL WEATHER SERVICE DETROIT/PONTIAC MI
200 PM EDT SUN MAY 29 2016

NOTE: "FAIR" INDICATES FEW OR NO CLOUDS BELOW 12,000 FEET WITH NO
SIGNIFICANT WEATHER AND/OR OBSTRUCTION TO VISIBILITY.

MIZ047>049-052>055-059>063-066>070-074>076-081>083-291900-
SOUTHEAST LOWER MICHIGAN

CITY           SKY/WX    TMP DP  RH WIND       PRES   REMARKS
ADRIAN         MOSUNNY   83  61  47 W12G23    30.01F
6HR MIN TEMP:  69; 6HR MAX TEMP:  86;

ALMA           MOSUNNY   80  58  46 SW16G26   29.97F
ANN ARBOR      MOSUNNY   83  63  50 SW14      30.00F
BAD AXE        MOSUNNY   82  59  45 SW13G24   29.96F
CARO           PTSUNNY   83  62  49 SW13G21   29.95F
DETROIT CITY   PTSUNNY   83  65  54 S14G20    30.00F
6HR MIN TEMP:  71; 6HR MAX TEMP:  83;

DETROIT        PTSUNNY   84  64  50 SW16G22   30.01F
6HR MIN TEMP:  71; 6HR MAX TEMP:  84;

FLINT          PTSUNNY   84  62  47 SW12      29.97F
6HR MIN TEMP:  73; 6HR MAX TEMP:  86;

GROSSE ILE     CLOUDY    79  68  69 S12       30.00F
HILLSDALE      MOSUNNY   83  56  39 SW12G18   30.02F
6HR MIN TEMP:  67; 6HR MAX TEMP:  83;

HOWELL         MOSUNNY   85  59  41 SW13G21   29.99F

CITY           SKY/WX    TMP DP  RH WIND       PRES   REMARKS
JACKSON        LGT RAIN  79  62  56 SW10      30.00F
6HR MIN TEMP:  69; 6HR MAX TEMP:  83; 6HR PCP:  0.02;

LAMBERTVILLE   MOSUNNY   85  65  51 SW9G16    30.01F
6HR MIN TEMP:  73; 6HR MAX TEMP:  85;

LANSING        MOSUNNY   82  63  52 SW20G26   29.99F
6HR MIN TEMP:  70; 6HR MAX TEMP:  82;

LAPEER         FAIR      84  55  37 SW12G21   29.98F
6HR MIN TEMP:  71; 6HR MAX TEMP:  84;

MASON          PTSUNNY   82  62  50 SW10      29.99F
MONROE         MOSUNNY   85  67  55 SW13G21   30.00F
6HR MIN TEMP:  71; 6HR MAX TEMP:  85;

MT. CLEMENS    PTSUNNY   82  68  64 S13       29.99F
6HR MIN TEMP:  69; 6HR MAX TEMP:  84;

PONTIAC        PTSUNNY   85  60  42 S14       29.99F
6HR MIN TEMP:  70; 6HR MAX TEMP:  85;

PORT HOPE        N/A     83  62  49 SW9G17    29.93F
6HR MIN TEMP:  71; 6HR MAX TEMP:  83;

PORT HURON     CLOUDY    81  68  65 S10       30.00F
TRI CITIES     PTSUNNY   84  62  47 SW16G23   29.95F
6HR MIN TEMP:  73; 6HR MAX TEMP:  85;

MIDLAND        FAIR      82  61  49 SW13G20   29.94F
6HR MIN TEMP:  71; 6HR MAX TEMP:  82;

TROY           PTSUNNY   84  60  45 S8G16     30.01F
SAGINAW HB     MOSUNNY   81  59  47 SW17G24   29.96S
$$
MIZ043>046-050>051-056>058-064>065-071>073-077>080-291900-
SOUTHWEST LOWER MICHIGAN

CITY           SKY/WX    TMP DP  RH WIND       PRES   REMARKS
BATTLE CREEK   MOSUNNY   81  59  47 SW16      30.00F
6HR MIN TEMP:  69; 6HR MAX TEMP:  81;

BENTON HARBOR  SUNNY     79  60  52 W16G24    30.00F
6HR MIN TEMP:  68; 6HR MAX TEMP:  81;

BIG RAPIDS     CLOUDY    75  59  57 SW14G22   29.95F
6HR MIN TEMP:  67; 6HR MAX TEMP:  76;

COLDWATER      MOSUNNY   81  60  47 SW15G22   30.00F
6HR MIN TEMP:  70; 6HR MAX TEMP:  83;

FREMONT        FAIR      76  60  57 SW18G32   29.97S
HOLLAND        SUNNY     80  60  50 SW21G33   30.00F
6HR MIN TEMP:  69; 6HR MAX TEMP:  80;

GRAND RAPIDS   PTSUNNY   81  56  42 W20G25    29.98F
6HR MIN TEMP:  71; 6HR MAX TEMP:  83;

IONIA          FAIR      81  55  40 S20G28    29.97F
6HR MIN TEMP:  70; 6HR MAX TEMP:  82;

KALAMAZOO      MOSUNNY   81  57  43 W16G24    30.00F
6HR MIN TEMP:  70; 6HR MAX TEMP:  82;

LUDINGTON      MOSUNNY   69  61  74 SW22      29.95S
6HR MIN TEMP:  65; 6HR MAX TEMP:  73;

MARSHALL       PTSUNNY   83  62  49 SW10      29.99F
6HR MIN TEMP:  70; 6HR MAX TEMP:  83;

MOUNT PLEASANT MOSUNNY   80  58  47 SW13G25   29.95F
6HR MIN TEMP:  71; 6HR MAX TEMP:  81;

MUSKEGON       PTSUNNY   76  60  57 SW21G29   29.98F
6HR MIN TEMP:  65; 6HR MAX TEMP:  76;

SOUTH HAVEN    SUNNY     79  59  49 W17       29.99F
$$
MIZ016>042-291900-
NORTHERN LOWER MICHIGAN

CITY           SKY/WX    TMP DP  RH WIND       PRES   REMARKS
ALPENA         MOSUNNY   82  62  50 SW13G18   29.89F
6HR MIN TEMP:  70; 6HR MAX TEMP:  85; 6HR PCP:  0.17;

BEAVER ISLAND  SUNNY     73  59  62 SW14G22   29.88S
6HR MIN TEMP:  66; 6HR MAX TEMP:  74;

BELLAIRE       PTSUNNY   78  53  41 SW8G16    29.88F
6HR MIN TEMP:  69; 6HR MAX TEMP:  81;

CADILLAC       CLOUDY    76  57  52 SW14G24   29.93F
CHARLEVOIX     PTSUNNY   73  58  59 W16       29.91F
FRANKFORT      CLOUDY    66  60  80 SW12G25   29.92R
GAYLORD        MOSUNNY   81  54  39 SW18G26   29.91F
6HR MIN TEMP:  67; 6HR MAX TEMP:  82;

GRAYLING       PTSUNNY   80  56  43 SW12G23   29.93F
HARBOR SPRINGS MOSUNNY   76  58  53 SW9G16    29.87F
HOUGHTON LAKE  PTSUNNY   78  58  49 SW12      29.94F
6HR MIN TEMP:  67; 6HR MAX TEMP:  80;

MANISTEE       PTSUNNY   73  57  56 SW17G31   29.93S
OSCODA         MOSUNNY   84  62  47 S20G29    29.92S
6HR MIN TEMP:  71; 6HR MAX TEMP:  84;

PELLSTON       MOSUNNY   81  57  43 SW15G26   29.88F
6HR MIN TEMP:  69; 6HR MAX TEMP:  82;

ROGERS CITY    MOSUNNY   81  56  42 SW13G22   29.88F
TRAVERSE CITY  CLOUDY    76  56  49 SW9G16    29.87F
6HR MIN TEMP:  69; 6HR MAX TEMP:  80;

$$
MIZ007>008-015-291900-
EASTERN UPPER MICHIGAN

CITY           SKY/WX    TMP DP  RH WIND       PRES   REMARKS
KINROSS          N/A     77  59  53 SW12G23   29.87F
6HR MIN TEMP:  64; 6HR MAX TEMP:  79;

MACKINAC ISLAN MOSUNNY   73  60  63 W14G24    29.88S
6HR MIN TEMP:  67; 6HR MAX TEMP:  74;

NEWBERRY       MOSUNNY   71  62  72 SW14G23   29.86F
6HR MIN TEMP:  62; 6HR MAX TEMP:  72;

S. S. MARIE    MOSUNNY   77  59  53 SW23G30   29.86S
6HR MIN TEMP:  65; 6HR MAX TEMP:  79;

MUNISING         N/A     76  59  55 S14G30    29.79S
6HR MIN TEMP:  62; 6HR MAX TEMP:  76;

$$
MIZ004>006-011>014-085-291900-
CENTRAL UPPER MICHIGAN

CITY           SKY/WX    TMP DP  RH WIND       PRES   REMARKS
MANISTIQUE     CLOUDY    54  53  97 S5        29.86F FOG
6HR MIN TEMP:  52; 6HR MAX TEMP:  55;

ESCANABA       CLOUDY    63  57  82 S13       29.83R
6HR MIN TEMP:  57; 6HR MAX TEMP:  66; 6HR PCP:  0.02;

MENOMINEE      CLOUDY    68  63  83 SW10      29.86R
6HR MIN TEMP:  66; 6HR MAX TEMP:  73;

SAWYER-GWINN   CLOUDY    63  61  94 SW9       29.81F
$$
MIZ001>003-009>011-084-291900-
WESTERN UPPER MICHIGAN

CITY           SKY/WX    TMP DP  RH WIND       PRES   REMARKS
IRON MOUNTAIN  PTSUNNY   66  62  87 SW6       29.80F
6HR MIN TEMP:  63; 6HR MAX TEMP:  72; 6HR PCP:  0.15;

HOUGHTON       CLOUDY    63  57  81 W16G25    29.78S
6HR MIN TEMP:  58; 6HR MAX TEMP:  66;

COPPER HARBOR    N/A     53  49  86 CALM      29.76F
6HR MIN TEMP:  49; 6HR MAX TEMP:  61;

IRONWOOD       CLOUDY    64  61  88 W9        29.80F
6HR MIN TEMP:  59; 6HR MAX TEMP:  66;

$$

ABBREVIATIONS USED IN REMARKS
   TC - TEMPERATURE IN CELSIUS
  WCI - WIND CHILL INDEX
   HX - HEAT INDEX
  VSB - VISIBILITY




USA.gov is the U.S. government's official web portal to all federal, state and local government web resources and services.